Location: Bednik
(45.3500°N, 16.3833°E)
Time: 16:26:35
(UTC+00:00)

Cosmos 1184 Rocket - Pass Details

Date: 08 August 2020
Orbit: 406 x 423 km, 81.2° (Epoch: 18 September)

Event Time Altitude Azimuth Distance (km) Brightness Sun altitude
Exits shadow 20:20:43 52° 205° (SSW) 536 3.0 -19.0°
Maximum altitude 20:21:26 79° 280° (W) 438 2.8 -19.1°
Drops below altitude 10° 20:24:45 10° 8° (N) 1,525 6.1 -19.4°
Sets 20:26:49 0° 10° (N) 2,396 7.2 -19.7°
